When you browse on this site, cookies collect data to enhance your experience and personalize the content and advertising you see.
Visit our Privacy Policy to learn more. By continuing to use the site, you agree to this use of cookies and data.
  • In Romania
  • List of Countries
  • For 7 days
  • Water Temperature
  • Satellite Maps
  • Weather Map
  • Weather Widgets
  • user-avatar
    Login

    Hourly Weather Ondjiwa

    Today, 19 July, Friday

    Time Temperature Precipitation Wind Pressure Humidity
    00:00 +15°C° 0 mm 2 mps 669 mmHg 28%
    01:00 +14°C° 0 mm 2 mps 668 mmHg 29%
    02:00 +14°C° 0 mm 2 mps 668 mmHg 30%
    03:00 +13°C° 0 mm 2 mps 668 mmHg 31%
    04:00 +13°C° 0 mm 2 mps 668 mmHg 32%
    05:00 +12°C° 0 mm 2 mps 668 mmHg 33%
    06:00 +12°C° 0 mm 2 mps 669 mmHg 35%
    07:00 +10°C° 0 mm 2 mps 669 mmHg 36%
    08:00 +16°C° 0 mm 3 mps 670 mmHg 30%
    09:00 +20°C° 0 mm 4 mps 671 mmHg 23%
    10:00 +26°C° 0 mm 4 mps 672 mmHg 17%
    11:00 +27°C° 0 mm 4 mps 672 mmHg 15%
    12:00 +29°C° 0 mm 4 mps 671 mmHg 13%
    13:00 +32°C° 0 mm 4 mps 671 mmHg 10%
    14:00 +32°C° 0 mm 4 mps 670 mmHg 10%
    15:00 +32°C° 0 mm 4 mps 670 mmHg 10%
    16:00 +31°C° 0 mm 3 mps 669 mmHg 10%
    17:00 +28°C° 0 mm 3 mps 669 mmHg 12%
    18:00 +24°C° 0 mm 2 mps 668 mmHg 15%
    19:00 +20°C° 0 mm 2 mps 668 mmHg 18%
    20:00 +19°C° 0 mm 2 mps 668 mmHg 19%
    21:00 +18°C° 0 mm 2 mps 668 mmHg 21%
    22:00 +17°C° 0 mm 2 mps 668 mmHg 22%
    23:00 +16°C° 0 mm 2 mps 668 mmHg 22%

    Tomorrow, 20 July, Saturday

    Time Temperature Precipitation Wind Pressure Humidity
    00:00 +16°C° 0 mm 2 mps 668 mmHg 23%
    01:00 +15°C° 0 mm 2 mps 668 mmHg 23%
    02:00 +14°C° 0 mm 2 mps 668 mmHg 24%
    03:00 +14°C° 0 mm 2 mps 668 mmHg 25%
    04:00 +13°C° 0 mm 2 mps 667 mmHg 26%
    05:00 +12°C° 0 mm 2 mps 668 mmHg 28%
    06:00 +12°C° 0 mm 2 mps 668 mmHg 30%
    07:00 +10°C° 0 mm 2 mps 669 mmHg 31%
    08:00 +16°C° 0 mm 3 mps 670 mmHg 26%
    09:00 +21°C° 0 mm 3 mps 671 mmHg 20%
    10:00 +26°C° 0 mm 3 mps 672 mmHg 15%
    11:00 +28°C° 0 mm 4 mps 671 mmHg 13%
    12:00 +30°C° 0 mm 4 mps 671 mmHg 11%
    13:00 +33°C° 0 mm 4 mps 670 mmHg 9%
    14:00 +33°C° 0 mm 4 mps 670 mmHg 9%
    15:00 +33°C° 0 mm 3 mps 669 mmHg 8%
    16:00 +33°C° 0 mm 3 mps 669 mmHg 8%
    17:00 +28°C° 0 mm 3 mps 668 mmHg 10%
    18:00 +25°C° 0 mm 2 mps 668 mmHg 13%
    19:00 +22°C° 0 mm 1 mps 667 mmHg 15%
    20:00 +20°C° 0 mm 2 mps 668 mmHg 16%
    21:00 +19°C° 0 mm 2 mps 668 mmHg 17%
    22:00 +18°C° 0 mm 2 mps 668 mmHg 18%
    23:00 +17°C° 0 mm 2 mps 668 mmHg 19%

    Day after tomorrow, 21 July, Sunday

    Time Temperature Precipitation Wind Pressure Humidity
    00:00 +16°C° 0 mm 2 mps 668 mmHg 19%
    01:00 +15°C° 0 mm 2 mps 667 mmHg 20%
    02:00 +14°C° 0 mm 2 mps 667 mmHg 21%
    03:00 +13°C° 0 mm 2 mps 667 mmHg 23%
    04:00 +13°C° 0 mm 2 mps 667 mmHg 24%
    05:00 +12°C° 0 mm 2 mps 668 mmHg 25%
    06:00 +12°C° 0 mm 2 mps 668 mmHg 26%
    07:00 +12°C° 0 mm 2 mps 669 mmHg 27%
    08:00 +16°C° 0 mm 3 mps 670 mmHg 22%
    09:00 +21°C° 0 mm 4 mps 671 mmHg 17%
    10:00 +26°C° 0 mm 4 mps 672 mmHg 12%
    11:00 +28°C° 0 mm 4 mps 672 mmHg 11%
    12:00 +32°C° 0 mm 4 mps 671 mmHg 9%
    13:00 +34°C° 0 mm 4 mps 671 mmHg 8%
    14:00 +34°C° 0 mm 4 mps 670 mmHg 8%
    15:00 +34°C° 0 mm 3 mps 670 mmHg 7%
    16:00 +34°C° 0 mm 3 mps 669 mmHg 7%
    17:00 +29°C° 0 mm 3 mps 669 mmHg 9%
    18:00 +26°C° 0 mm 2 mps 668 mmHg 12%
    19:00 +21°C° 0 mm 2 mps 668 mmHg 14%
    20:00 +20°C° 0 mm 2 mps 668 mmHg 14%
    21:00 +19°C° 0 mm 2 mps 668 mmHg 15%
    22:00 +18°C° 0 mm 3 mps 669 mmHg 16%
    23:00 +17°C° 0 mm 3 mps 668 mmHg 17%

    22 July, Monday

    Time Temperature Precipitation Wind Pressure Humidity
    00:00 +17°C° 0 mm 3 mps 668 mmHg 17%
    01:00 +16°C° 0 mm 3 mps 668 mmHg 18%
    02:00 +14°C° 0 mm 3 mps 668 mmHg 19%
    03:00 +13°C° 0 mm 3 mps 668 mmHg 20%
    04:00 +13°C° 0 mm 2 mps 667 mmHg 21%
    05:00 +12°C° 0 mm 2 mps 668 mmHg 23%
    06:00 +12°C° 0 mm 2 mps 668 mmHg 24%
    07:00 +11°C° 0 mm 1 mps 669 mmHg 26%
    08:00 +15°C° 0 mm 2 mps 670 mmHg 21%
    09:00 +20°C° 0 mm 3 mps 671 mmHg 16%
    10:00 +25°C° 0 mm 4 mps 672 mmHg 11%
    11:00 +27°C° 0 mm 4 mps 671 mmHg 10%
    12:00 +30°C° 0 mm 3 mps 671 mmHg 9%
    13:00 +33°C° 0 mm 3 mps 670 mmHg 7%
    14:00 +33°C° 0 mm 3 mps 669 mmHg 7%
    15:00 +32°C° 0 mm 2 mps 669 mmHg 7%
    16:00 +32°C° 0 mm 1 mps 668 mmHg 7%
    17:00 +29°C° 0 mm 2 mps 668 mmHg 9%
    18:00 +26°C° 0 mm 2 mps 667 mmHg 11%
    19:00 +21°C° 0 mm 2 mps 667 mmHg 13%
    20:00 +20°C° 0 mm 2 mps 667 mmHg 13%
    21:00 +19°C° 0 mm 2 mps 667 mmHg 14%
    22:00 +18°C° 0 mm 2 mps 667 mmHg 15%
    23:00 +17°C° 0 mm 2 mps 667 mmHg 16%

    23 July, Tuesday

    Time Temperature Precipitation Wind Pressure Humidity
    00:00 +16°C° 0 mm 2 mps 667 mmHg 17%
    01:00 +15°C° 0 mm 2 mps 667 mmHg 18%
    02:00 +14°C° 0 mm 2 mps 667 mmHg 20%
    03:00 +13°C° 0 mm 1 mps 667 mmHg 21%
    04:00 +12°C° 0 mm 1 mps 667 mmHg 23%
    05:00 +12°C° 0 mm 1 mps 667 mmHg 24%
    06:00 +12°C° 0 mm 1 mps 667 mmHg 26%
    07:00 +12°C° 0 mm 2 mps 668 mmHg 27%
    08:00 +16°C° 0 mm 2 mps 669 mmHg 23%
    09:00 +21°C° 0 mm 3 mps 670 mmHg 19%
    10:00 +26°C° 0 mm 4 mps 671 mmHg 16%
    11:00 +28°C° 0 mm 3 mps 670 mmHg 14%
    12:00 +30°C° 0 mm 3 mps 670 mmHg 12%
    13:00 +33°C° 0 mm 3 mps 669 mmHg 11%
    14:00 +32°C° 0 mm 2 mps 669 mmHg 10%
    15:00 +32°C° 0 mm 2 mps 668 mmHg 10%
    16:00 +33°C° 0 mm 1 mps 668 mmHg 9%
    17:00 +29°C° 0 mm 1 mps 667 mmHg 12%
    18:00 +26°C° 0 mm 1 mps 667 mmHg 14%
    19:00 +23°C° 0 mm 2 mps 666 mmHg 16%
    20:00 +21°C° 0 mm 2 mps 666 mmHg 18%
    21:00 +20°C° 0 mm 2 mps 666 mmHg 19%
    22:00 +19°C° 0 mm 2 mps 666 mmHg 20%
    23:00 +18°C° 0 mm 2 mps 666 mmHg 22%

    24 July, Wednesday

    Time Temperature Precipitation Wind Pressure Humidity
    00:00 +18°C° 0 mm 1 mps 666 mmHg 24%
    01:00 +15°C° 0 mm 1 mps 666 mmHg 25%
    02:00 +15°C° 0 mm 1 mps 666 mmHg 27%
    03:00 +14°C° 0 mm 1 mps 666 mmHg 29%
    04:00 +13°C° 0 mm 1 mps 666 mmHg 31%
    05:00 +13°C° 0 mm 1 mps 667 mmHg 32%
    06:00 +13°C° 0 mm 1 mps 667 mmHg 33%
    07:00 +13°C° 0 mm 2 mps 668 mmHg 33%
    08:00 +17°C° 0 mm 2 mps 668 mmHg 27%
    09:00 +21°C° 0 mm 2 mps 669 mmHg 21%
    10:00 +26°C° 0 mm 3 mps 670 mmHg 15%
    11:00 +28°C° 0 mm 2 mps 670 mmHg 13%
    12:00 +30°C° 0 mm 2 mps 670 mmHg 11%
    13:00 +34°C° 0 mm 2 mps 669 mmHg 10%
    14:00 +34°C° 0 mm 2 mps 669 mmHg 10%
    15:00 +33°C° 0 mm 1 mps 668 mmHg 10%
    16:00 +33°C° 0 mm 1 mps 668 mmHg 10%
    17:00 +30°C° 0 mm 1 mps 668 mmHg 12%
    18:00 +26°C° 0 mm 1 mps 667 mmHg 15%
    19:00 +23°C° 0 mm 1 mps 667 mmHg 17%
    20:00 +21°C° 0 mm 2 mps 667 mmHg 19%
    21:00 +20°C° 0 mm 2 mps 667 mmHg 20%
    22:00 +19°C° 0 mm 2 mps 667 mmHg 21%
    23:00 +18°C° 0 mm 2 mps 667 mmHg 22%
    Show more